| time (UTC) | temp F | wind direction | speed knots | gust knots | rain 1hr in | rain 24hr in | rain mn in | humidity % | barometer mb |
| 20260504151003 | 57 | 9 | 1.7 | 7.8 | 0.00 | 0.00 | 0.00 | 75 | 1012.2 |
| 20260504150501 | 57 | 354 | 3.5 | 7.0 | 0.00 | 0.00 | 0.00 | 75 | 1012.2 |
| 20260504141052 | 56 | 332 | 0.9 | 5.2 | 0.00 | 0.00 | 0.00 | 76 | 1012.0 |
| 20260504140552 | 56 | 64 | 1.7 | 4.3 | 0.00 | 0.00 | 0.00 | 76 | 1012.0 |
| 20260504140105 | 56 | 20 | 1.7 | 3.5 | 0.00 | 0.00 | 0.00 | 76 | 1012.0 |
| 20260504130550 | 56 | 290 | 0.9 | 3.5 | 0.00 | 0.00 | 0.00 | 76 | 1011.8 |
| 20260504110540 | 56 | 310 | 1.7 | 4.3 | 0.00 | 0.00 | 0.00 | 76 | 1011.6 |
| 20260504100535 | 56 | 264 | 2.6 | 6.1 | 0.00 | 0.00 | 0.00 | 75 | 1011.1 |
| 20260504081527 | 56 | 295 | 4.3 | 9.6 | 0.00 | 0.00 | 0.00 | 73 | 1011.0 |
| 20260504081026 | 56 | 308 | 3.5 | 7.8 | 0.00 | 0.00 | 0.00 | 73 | 1011.0 |
| 20260504080525 | 56 | 253 | 3.5 | 7.8 | 0.00 | 0.00 | 0.00 | 73 | 1011.0 |
| 20260504050504 | 61 | 276 | 3.5 | 13.0 | 0.00 | 0.00 | 0.00 | 64 | 1010.0 |
| 20260504050002 | 62 | 316 | 4.3 | 10.4 | 0.00 | 0.00 | 0.00 | 63 | 1010.0 |
| 20260504045502 | 62 | 293 | 4.3 | 13.9 | 0.00 | 0.00 | 0.00 | 63 | 1009.9 |
| 20260504045004 | 62 | 323 | 4.3 | 12.2 | 0.00 | 0.00 | 0.00 | 62 | 1009.9 |
| 20260504044504 | 62 | 304 | 6.1 | 12.2 | 0.00 | 0.00 | 0.00 | 62 | 1009.9 |
| 20260504044002 | 62 | 296 | 5.2 | 12.2 | 0.00 | 0.00 | 0.00 | 62 | 1009.9 |
| 20260504043503 | 63 | 290 | 6.1 | 14.8 | 0.00 | 0.00 | 0.00 | 62 | 1009.9 |
| 20260504043004 | 63 | 300 | 6.1 | 14.8 | 0.00 | 0.00 | 0.00 | 62 | 1009.8 |
| 20260504042501 | 63 | 245 | 2.6 | 13.0 | 0.00 | 0.00 | 0.00 | 62 | 1009.8 |
| 20260504042100 | 63 | 317 | 6.1 | 13.0 | 0.00 | 0.00 | 0.00 | 61 | 1009.7 |
| 20260504041600 | 63 | 330 | 5.2 | 11.3 | 0.00 | 0.00 | 0.00 | 61 | 1009.4 |
| 20260504041500 | 63 | 346 | 5.2 | 11.3 | 0.00 | 0.00 | 0.00 | 61 | 1009.4 |
| 20260504041000 | 63 | 280 | 3.5 | 11.3 | 0.00 | 0.00 | 0.00 | 62 | 1009.4 |
| 20260504040601 | 64 | 295 | 2.6 | 11.3 | 0.00 | 0.00 | 0.00 | 62 | 1009.4 |
| 20260504040107 | 64 | 320 | 3.5 | 9.6 | 0.00 | 0.00 | 0.00 | 62 | 1009.3 |
| 20260504035600 | 64 | 240 | 1.7 | 7.0 | 0.00 | 0.00 | 0.00 | 62 | 1009.2 |
| 20260504035059 | 64 | 341 | 1.7 | 7.0 | 0.00 | 0.00 | 0.00 | 61 | 1009.2 |
| 20260504034605 | 63 | 262 | 3.5 | 7.0 | 0.00 | 0.00 | 0.00 | 59 | 1009.0 |
| 20260504034059 | 63 | 299 | 2.6 | 11.3 | 0.00 | 0.00 | 0.00 | 56 | 1009.0 |
| 20260504033559 | 63 | 270 | 4.3 | 11.3 | 0.00 | 0.00 | 0.00 | 55 | 1008.7 |
| 20260504033115 | 64 | 249 | 5.2 | 10.4 | 0.00 | 0.00 | 0.00 | 55 | 1008.7 |
| 20260504032601 | 64 | 247 | 5.2 | 10.4 | 0.00 | 0.00 | 0.00 | 54 | 1008.6 |
| 20260504032059 | 64 | 259 | 7.0 | 10.4 | 0.00 | 0.00 | 0.00 | 54 | 1008.5 |
| 20260504031559 | 65 | 239 | 3.5 | 13.0 | 0.00 | 0.00 | 0.00 | 54 | 1008.5 |
| 20260504031059 | 65 | 255 | 7.0 | 13.9 | 0.00 | 0.00 | 0.00 | 54 | 1008.4 |
| 20260504030558 | 65 | 271 | 7.0 | 13.9 | 0.00 | 0.00 | 0.00 | 54 | 1008.4 |
| 20260504030057 | 66 | 274 | 7.0 | 11.3 | 0.00 | 0.00 | 0.00 | 53 | 1008.3 |
| 20260504025557 | 67 | 235 | 5.2 | 13.0 | 0.00 | 0.00 | 0.00 | 53 | 1008.2 |
| 20260504025057 | 67 | 283 | 7.0 | 10.4 | 0.00 | 0.00 | 0.00 | 54 | 1008.1 |
| 20260504024605 | 68 | 264 | 6.1 | 12.2 | 0.00 | 0.00 | 0.00 | 55 | 1008.0 |
| 20260504024056 | 69 | 284 | 3.5 | 12.2 | 0.00 | 0.00 | 0.00 | 57 | 1007.9 |
| 20260504023557 | 69 | 314 | 5.2 | 8.7 | 0.00 | 0.00 | 0.00 | 57 | 1007.8 |
| 20260504023057 | 69 | 285 | 2.6 | 8.7 | 0.00 | 0.00 | 0.00 | 57 | 1007.7 |
| 20260504022558 | 69 | 316 | 3.5 | 8.7 | 0.00 | 0.00 | 0.00 | 56 | 1007.7 |
| 20260504022059 | 69 | 339 | 5.2 | 10.4 | 0.00 | 0.00 | 0.00 | 56 | 1007.7 |
| 20260504021556 | 70 | 4 | 4.3 | 10.4 | 0.00 | 0.00 | 0.00 | 55 | 1007.6 |
| 20260504021056 | 70 | 254 | 3.5 | 7.8 | 0.00 | 0.00 | 0.00 | 55 | 1007.4 |
| 20260504020556 | 71 | 334 | 2.6 | 7.8 | 0.00 | 0.00 | 0.00 | 54 | 1007.4 |
| 20260504020055 | 71 | 319 | 3.5 | 9.6 | 0.00 | 0.00 | 0.00 | 53 | 1007.4 |
| 20260504015556 | 71 | 303 | 5.2 | 9.6 | 0.00 | 0.00 | 0.00 | 52 | 1007.3 |
| 20260504015058 | 71 | 267 | 5.2 | 12.2 | 0.00 | 0.00 | 0.00 | 51 | 1007.3 |
| 20260504014556 | 71 | 274 | 6.1 | 12.2 | 0.00 | 0.00 | 0.00 | 51 | 1007.2 |
| 20260504014058 | 71 | 283 | 7.0 | 13.0 | 0.00 | 0.00 | 0.00 | 51 | 1007.2 |
| 20260504013555 | 71 | 232 | 9.6 | 13.0 | 0.00 | 0.00 | 0.00 | 50 | 1007.1 |
| 20260504013057 | 71 | 256 | 5.2 | 13.9 | 0.00 | 0.00 | 0.00 | 50 | 1007.2 |
| 20260504012555 | 71 | 262 | 7.8 | 14.8 | 0.00 | 0.00 | 0.00 | 49 | 1007.2 |
| 20260504012055 | 71 | 243 | 5.2 | 13.9 | 0.00 | 0.00 | 0.00 | 49 | 1007.2 |
| 20260504011555 | 72 | 285 | 9.6 | 13.9 | 0.00 | 0.00 | 0.00 | 48 | 1007.2 |
| 20260504011055 | 72 | 261 | 7.8 | 16.5 | 0.00 | 0.00 | 0.00 | 48 | 1007.2 |
| 20260504010554 | 72 | 261 | 8.7 | 16.5 | 0.00 | 0.00 | 0.00 | 47 | 1007.2 |
| 20260504010058 | 72 | 284 | 6.1 | 15.6 | 0.00 | 0.00 | 0.00 | 47 | 1007.1 |
| 20260504005554 | 73 | 232 | 6.1 | 16.5 | 0.00 | 0.00 | 0.00 | 47 | 1007.2 |
| 20260504005057 | 73 | 260 | 9.6 | 16.5 | 0.00 | 0.00 | 0.00 | 47 | 1007.2 |
| 20260504004554 | 73 | 252 | 4.3 | 12.2 | 0.00 | 0.00 | 0.00 | 49 | 1007.2 |
| 20260504004053 | 73 | 296 | 6.1 | 13.0 | 0.00 | 0.00 | 0.00 | 49 | 1007.1 |
| 20260504003557 | 74 | 293 | 7.0 | 13.0 | 0.00 | 0.00 | 0.00 | 48 | 1007.2 |
| 20260504003053 | 73 | 260 | 3.5 | 7.8 | 0.00 | 0.00 | 0.00 | 48 | 1007.1 |
| 20260504002553 | 73 | 349 | 3.5 | 7.8 | 0.00 | 0.00 | 0.00 | 47 | 1007.1 |
| 20260504002053 | 74 | 303 | 3.5 | 7.8 | 0.00 | 0.00 | 0.00 | 47 | 1007.1 |
| 20260504001610 | 74 | 336 | 3.5 | 7.8 | 0.00 | 0.00 | 0.00 | 48 | 1007.1 |
| 20260504001053 | 73 | 235 | 1.7 | 7.0 | 0.00 | 0.00 | 0.00 | 49 | 1007.1 |
| 20260504000553 | 72 | 342 | 2.6 | 11.3 | 0.00 | 0.00 | 0.00 | 50 | 1007.0 |
| 20260504000052 | 72 | 316 | 5.2 | 11.3 | 0.00 | 0.00 | 0.00 | 50 | 1007.0 |
| 20260503235552 | 72 | 272 | 6.1 | 10.4 | 0.00 | 0.00 | 0.00 | 50 | 1007.0 |
| 20260503235052 | 73 | 255 | 3.5 | 8.7 | 0.00 | 0.00 | 0.00 | 49 | 1007.0 |
| 20260503234553 | 73 | 338 | 3.5 | 11.3 | 0.00 | 0.00 | 0.00 | 49 | 1006.9 |
| 20260503234052 | 74 | 268 | 3.5 | 11.3 | 0.00 | 0.00 | 0.00 | 49 | 1007.0 |
| 20260503233552 | 74 | 272 | 6.1 | 8.7 | 0.00 | 0.00 | 0.00 | 47 | 1007.1 |
| 20260503233052 | 74 | 304 | 1.7 | 7.8 | 0.00 | 0.00 | 0.00 | 48 | 1007.2 |
| 20260503232556 | 73 | 343 | 1.7 | 9.6 | 0.00 | 0.00 | 0.00 | 49 | 1007.2 |
| 20260503232051 | 73 | 345 | 4.3 | 11.3 | 0.00 | 0.00 | 0.00 | 48 | 1007.2 |
| 20260503231554 | 74 | 279 | 6.1 | 11.3 | 0.00 | 0.00 | 0.00 | 49 | 1007.2 |
| 20260503231052 | 73 | 359 | 3.5 | 8.7 | 0.00 | 0.00 | 0.00 | 50 | 1007.3 |
| 20260503230552 | 73 | 301 | 4.3 | 9.6 | 0.00 | 0.00 | 0.00 | 49 | 1007.3 |
| 20260503230052 | 73 | 9 | 4.3 | 13.0 | 0.00 | 0.00 | 0.00 | 50 | 1007.3 |
| 20260503225551 | 73 | 297 | 6.1 | 9.6 | 0.00 | 0.00 | 0.00 | 50 | 1007.3 |
| 20260503225052 | 74 | 308 | 4.3 | 11.3 | 0.00 | 0.00 | 0.00 | 49 | 1007.4 |
| 20260503224550 | 74 | 9 | 2.6 | 11.3 | 0.00 | 0.00 | 0.00 | 47 | 1007.4 |
| 20260503224051 | 73 | 36 | 0.9 | 9.6 | 0.00 | 0.00 | 0.00 | 49 | 1007.5 |
| 20260503223551 | 73 | 343 | 1.7 | 13.0 | 0.00 | 0.00 | 0.00 | 50 | 1007.5 |
| 20260503223051 | 74 | 10 | 3.5 | 13.0 | 0.00 | 0.00 | 0.00 | 47 | 1007.5 |
| 20260503222554 | 74 | 246 | 7.0 | 13.0 | 0.00 | 0.00 | 0.00 | 46 | 1007.5 |
| 20260503222051 | 75 | 256 | 4.3 | 9.6 | 0.00 | 0.00 | 0.00 | 44 | 1007.6 |
| 20260503221550 | 74 | 272 | 7.0 | 9.6 | 0.00 | 0.00 | 0.00 | 45 | 1007.7 |
| 20260503221052 | 74 | 252 | 4.3 | 8.7 | 0.00 | 0.00 | 0.00 | 46 | 1007.7 |
| 20260503220549 | 73 | 304 | 5.2 | 12.2 | 0.00 | 0.00 | 0.00 | 46 | 1007.7 |
| 20260503220105 | 73 | 266 | 5.2 | 12.2 | 0.00 | 0.00 | 0.00 | 47 | 1007.7 |
| 20260503215548 | 73 | 259 | 3.5 | 10.4 | 0.00 | 0.00 | 0.00 | 46 | 1007.7 |
| 20260503215049 | 73 | 237 | 4.3 | 9.6 | 0.00 | 0.00 | 0.00 | 47 | 1007.9 |
| 20260503214549 | 73 | 301 | 5.2 | 11.3 | 0.00 | 0.00 | 0.00 | 47 | 1007.9 |
| 20260503214050 | 73 | 332 | 6.1 | 11.3 | 0.00 | 0.00 | 0.00 | 46 | 1007.9 |
| 20260503213551 | 73 | 168 | 2.6 | 12.2 | 0.00 | 0.00 | 0.00 | 46 | 1007.9 |
| 20260503213050 | 74 | 264 | 5.2 | 12.2 | 0.00 | 0.00 | 0.00 | 45 | 1008.0 |
| 20260503212549 | 74 | 260 | 5.2 | 13.0 | 0.00 | 0.00 | 0.00 | 45 | 1007.9 |
| 20260503212048 | 73 | 262 | 5.2 | 13.0 | 0.00 | 0.00 | 0.00 | 46 | 1007.9 |
| 20260503211601 | 73 | 277 | 6.1 | 14.8 | 0.00 | 0.00 | 0.00 | 45 | 1008.1 |
| 20260503211052 | 73 | 235 | 8.7 | 14.8 | 0.00 | 0.00 | 0.00 | 46 | 1008.1 |
| 20260503210548 | 74 | 262 | 4.3 | 11.3 | 0.00 | 0.00 | 0.00 | 45 | 1008.1 |
| 20260503210054 | 74 | 262 | 6.1 | 11.3 | 0.00 | 0.00 | 0.00 | 45 | 1008.1 |
| 20260503205547 | 74 | 87 | 2.6 | 8.7 | 0.00 | 0.00 | 0.00 | 44 | 1008.1 |
| 20260503205047 | 74 | 219 | 3.5 | 8.7 | 0.00 | 0.00 | 0.00 | 46 | 1008.2 |
| 20260503204552 | 73 | 233 | 3.5 | 13.0 | 0.00 | 0.00 | 0.00 | 48 | 1008.2 |
| 20260503204044 | 73 | 274 | 7.0 | 13.0 | 0.00 | 0.00 | 0.00 | 47 | 1008.2 |
| 20260503203544 | 72 | 312 | 4.3 | 11.3 | 0.00 | 0.00 | 0.00 | 48 | 1008.2 |
| 20260503203044 | 72 | 222 | 2.6 | 11.3 | 0.00 | 0.00 | 0.00 | 49 | 1008.3 |
| 20260503202544 | 72 | 212 | 4.3 | 10.4 | 0.00 | 0.00 | 0.00 | 48 | 1008.3 |
| 20260503202047 | 72 | 257 | 5.2 | 10.4 | 0.00 | 0.00 | 0.00 | 50 | 1008.3 |
| 20260503201544 | 72 | 147 | 2.6 | 7.8 | 0.00 | 0.00 | 0.00 | 51 | 1008.3 |
| 20260503201043 | 72 | 301 | 2.6 | 9.6 | 0.00 | 0.00 | 0.00 | 49 | 1008.5 |
| 20260503200547 | 73 | 270 | 5.2 | 9.6 | 0.00 | 0.00 | 0.00 | 50 | 1008.5 |
| 20260503200042 | 73 | 343 | 2.6 | 7.0 | 0.00 | 0.00 | 0.00 | 50 | 1008.4 |
| 20260503195541 | 70 | 41 | 0.9 | 10.4 | 0.00 | 0.00 | 0.00 | 54 | 1008.5 |
| 20260503195040 | 70 | 4 | 5.2 | 10.4 | 0.00 | 0.00 | 0.00 | 52 | 1008.7 |
| 20260503194539 | 70 | 327 | 0.0 | 9.6 | 0.00 | 0.00 | 0.00 | 53 | 1008.6 |
| 20260503194040 | 70 | 285 | 1.7 | 8.7 | 0.00 | 0.00 | 0.00 | 55 | 1008.7 |
| 20260503193538 | 69 | 258 | 1.7 | 10.4 | 0.00 | 0.00 | 0.00 | 53 | 1008.8 |
| 20260503193045 | 69 | 245 | 4.3 | 10.4 | 0.00 | 0.00 | 0.00 | 53 | 1008.9 |
| 20260503192537 | 69 | 354 | 5.2 | 9.6 | 0.00 | 0.00 | 0.00 | 53 | 1008.9 |
| 20260503192041 | 69 | 307 | 0.9 | 5.2 | 0.00 | 0.00 | 0.00 | 55 | 1009.0 |
| 20260503191538 | 68 | 295 | 2.6 | 8.7 | 0.00 | 0.00 | 0.00 | 55 | 1009.0 |
| 20260503191037 | 69 | 70 | 4.3 | 8.7 | 0.00 | 0.00 | 0.00 | 54 | 1009.1 |
| 20260503190537 | 69 | 257 | 1.7 | 7.8 | 0.00 | 0.00 | 0.00 | 54 | 1009.1 |
| 20260503190037 | 69 | 4 | 1.7 | 7.8 | 0.00 | 0.00 | 0.00 | 55 | 1009.1 |
| 20260503185535 | 69 | 354 | 0.9 | 6.1 | 0.00 | 0.00 | 0.00 | 56 | 1009.2 |
| 20260503185036 | 68 | 255 | 2.6 | 6.1 | 0.00 | 0.00 | 0.00 | 56 | 1009.3 |
| 20260503184533 | 68 | 260 | 1.7 | 7.8 | 0.00 | 0.00 | 0.00 | 56 | 1009.3 |
| 20260503184032 | 67 | 251 | 2.6 | 7.0 | 0.00 | 0.00 | 0.00 | 57 | 1009.3 |
| 20260503183532 | 67 | 301 | 2.6 | 7.0 | 0.00 | 0.00 | 0.00 | 58 | 1009.4 |
| 20260503183037 | 66 | 43 | 1.7 | 10.4 | 0.00 | 0.00 | 0.00 | 59 | 1009.5 |
| 20260503182529 | 66 | 299 | 5.2 | 10.4 | 0.00 | 0.00 | 0.00 | 59 | 1009.5 |
| 20260503182029 | 66 | 249 | 3.5 | 7.8 | 0.00 | 0.00 | 0.00 | 59 | 1009.5 |
| 20260503181547 | 65 | 264 | 3.5 | 7.8 | 0.00 | 0.00 | 0.00 | 61 | 1009.4 |
| 20260503181028 | 65 | 251 | 4.3 | 7.8 | 0.00 | 0.00 | 0.00 | 60 | 1009.6 |
| 20260503180530 | 65 | 291 | 2.6 | 7.0 | 0.00 | 0.00 | 0.00 | 60 | 1009.6 |
| 20260503180025 | 65 | 270 | 2.6 | 11.3 | 0.00 | 0.00 | 0.00 | 62 | 1009.6 |
| 20260503175523 | 64 | 285 | 3.5 | 11.3 | 0.00 | 0.00 | 0.00 | 62 | 1009.6 |
| 20260503175023 | 64 | 337 | 3.5 | 7.8 | 0.00 | 0.00 | 0.00 | 62 | 1009.6 |
| 20260503174522 | 64 | 328 | 2.6 | 8.7 | 0.00 | 0.00 | 0.00 | 64 | 1009.6 |
| 20260503174022 | 64 | 289 | 3.5 | 8.7 | 0.00 | 0.00 | 0.00 | 63 | 1009.6 |
| 20260503173624 | 64 | 251 | 3.5 | 8.7 | 0.00 | 0.00 | 0.00 | 63 | 1009.6 |
| 20260503173039 | 63 | 222 | 4.3 | 8.7 | 0.00 | 0.00 | 0.00 | 64 | 1009.5 |
| 20260503172518 | 63 | 324 | 1.7 | 8.7 | 0.00 | 0.00 | 0.00 | 66 | 1009.4 |
| 20260503172022 | 62 | 264 | 3.5 | 8.7 | 0.00 | 0.00 | 0.00 | 65 | 1009.3 |
| 20260503171518 | 62 | 317 | 3.5 | 7.0 | 0.00 | 0.00 | 0.00 | 65 | 1009.4 |
| 20260503171016 | 62 | 270 | 1.7 | 7.0 | 0.00 | 0.00 | 0.00 | 68 | 1009.5 |
| 20260503170519 | 62 | 345 | 1.7 | 7.0 | 0.00 | 0.00 | 0.00 | 68 | 1009.4 |